Showing default

EOS-8, 60454

Orbit data source: Space-Track

EOS-8, 60454 is a payload satellite owned by ISRO (IN) in LEO that was launched on Fri, 16 Aug 2024 UTC via an SSLV launch vehicle from the Sirharikota (SRI). Payload-class satellites include a variety of spacecraft equipped with specific instruments for various scientific and technological missions. These include communications satellites like Starlink; space stations such as the ISS; scientific satellites like the Hubble; Earth observation satellites from companies like Planet Labs, Umbra, and HawkEye 360; GPS; miniature CubeSats for education and research; and military/defense satellites.

Loading next visibility...
Identifier
60454, 2024-147A
Orbit
LEO
Country
Flag of ININ / IND
Related business
Manufacturer
ISRO SAC/Banga
Mission
Operational Civil Imaging
Bus & Motor
IMS-1, Unknown motor
Mass
176 kg wet, ~176 kg dry
Launch date (UTC)
2024-08-16 (1 year ago)
Launch vehicle
SSLV
Launch site
Sirharikota (SRI)
Object type
Payload
Rocket body
Debris
Shape & HBR
Box + 2 Pan, 1.5 m
Radar Cross Section
0.935 m², Large (>1 m²)

Expand to show TLE details & history
Last TLE update: 1 day ago

TLE from 1 day ago
0 EOS-8
1 60454U 24147A   25260.67768699  .00025762  00000-0  60649-3 0  9990
2 60454  37.3814 334.6956 0003275 358.2249   1.8501 15.41140793 60920
Epoch: 2025-09-17T16:15Z
TLE epoch observation values (Epoch: 2025-09-17T16:15:52.155Z)
Latitude
-0.00006°
Longitude
93.87801°
Altitude
439.662 km
Speed
7.652 km/s
True Right ascension
22h 18m 46s
True Declination
0° 00' 00"
Sunlit
Object was in full shadow at epoch
Visualization orbit readout
Latitude
Unknown
Longitude
Unknown
Altitude
Unknown
Speed
Unknown
Apparent Right ascension
Unknown
Apparent Declination
Unknown
Sunlit
N/A
Visualization observer readout
Local Sidereal Time
12:48:13
Azimuth
Unknown
Elevation
Unknown
Doppler factor
Unknown
Orbital elements
Apogee altitude
447.868 km
Perigee altitude
443.399 km
Semi-major axis
6,823.77 km
Eccentricity
0.00033
Inclination
37.3814°
RAAN
334.6956°
Arg. of periapsis
358.2249°
True anomaly
1.85131°
Mean anomaly
1.8501°
Eccentric anomaly
1.85071°
Mean motion
3.85041 °/min
Orbital period
93.5 mins
BSTAR
0.00060649
Loading maneuver chart data...
Computing Atmospheric mass density...
Loading historical data...
Loading historical data...
Loading historical data...
Loading historical data...
Loading historical data...
Loading historical data...
Loading historical data...
Other satellites on launch #147 in the year 2024 (2024-08-16 UTC)

Documentation

Showing up to 5 results
|